Other Surface Observations
Issued by NWS Tucson, AZ

Home | Current Version | Previous Version | Text Only | Print | Product List | Glossary On
Versions: 1 2 3 4 5 6 7 8 9 10 11 12 13 14 15 16 17 18 19 20 21 22 23 24 25 26 27 28 29 30 31 32 33 34 35 36 37 38 39 40 41 42 43 44 45 46 47 48 49 50
000
SXUS55 KTWC 222115
OSOTWC

WEATHER ROUNDUP FOR SOUTHEAST ARIZONA
NATIONAL WEATHER SERVICE TUCSON AZ
215 PM MST MON DEC 22 2014

AZZ504>506-514-222215-
LOCATION       SKY/WX    TMP DP  RH WIND       PRES   REMARKS
TUCSON         SUNNY     63  38  39 VRB5      29.96F
DAVIS-MONTHAN  SUNNY     62  39  44 W7        29.94F
CHILDRENS PARK N/A       59  38  45 NW2               PIMA CO DEQ
ALVERNON/22ND  N/A      N/A N/A N/A N/A               PIMA CO DEQ
CHERRY/GLENN   N/A      N/A N/A N/A N/A               PIMA CO DEQ
TANGERINE      N/A       60 N/A N/A W4                PIMA CO DEQ
CONTL RANCH    N/A       62  41  46 NW3               PIMA CO DEQ
GRANT/1ST      N/A       60  39  45 NW2               PIMA CO DEQ
CRAYCROFT/22ND N/A      N/A N/A N/A N/A               PIMA CO DEQ
GOLFLINKS/KOLB N/A       60  38  44 W4                PIMA CO DEQ
AJO/12TH       N/A       61  40  46 S3                PIMA CO DEQ
SAGUARO EAST   N/A      N/A N/A N/A N/A               PIMA CO DEQ
FAIRGROUNDS    N/A       59 N/A N/A W7                PIMA CO DEQ
SAGUARO        N/A       64  38  38 S3                *SABINO CYN
SAN CARLOS     N/A       61  40  46 SE4               *SAN CARLOS
GREEN VALLEY   N/A       64  37  37 E2                PIMA CO DEQ
HORSE CAMP CYN N/A       55  37  51 SW12G17           *ARAVAIPA CYN
RINCON MTNS    N/A       53  28  38 NW3G13            *NR MANNING CAMP
$$

AZZ509>511-222215-
LOCATION       SKY/WX    TMP DP  RH WIND       PRES   REMARKS
SAFFORD        SUNNY     63  37  38 NW16G24   29.84F
STRAY HORSE    N/A       55  22  27 W10G23            *
TRAIL CABIN    N/A       59  35  40 W7G15             *N OF GRANVILLE
BLACK HILLS    N/A       61  38  43 NW13G23           *N OF FT THOMAS
DRY LAKE       N/A       54  32  43 NW6G17            *NATANES MTNS
NOON CREEK     N/A       56  38  51 E3G10             *PINALENO MTNS
COLUMBINE      N/A       51  22  32 W5G12             *PINALENO MTNS
GUTHRIE        N/A       51  34  51 W14G24            *SW OF GUTHRIE
$$

AZZ502-503-513-222215-
LOCATION       SKY/WX    TMP DP  RH WIND       PRES   REMARKS
NOGALES        SUNNY     65  35  33 NW10G22   29.96F
SELLS          N/A       65  40  40 SW6G10            *
SASABE         N/A       68  39  34 E4                *ALTAR VLY
HOPKINS        N/A       59  33  37 SW6G12            *SANTA RITA MTNS
CARR CYN       N/A       58  38  48 SE3               *W OF HEREFORD
$$

AZZ507-508-512-222215-
LOCATION       SKY/WX    TMP DP  RH WIND       PRES   REMARKS
SIERRA VISTA   SUNNY     64  34  32 W22G28    29.96F
DOUGLAS        SUNNY     64  35  34 SW9       29.93F
EMPIRE MTNS    N/A       60  35  39 NW14G22           *LAS CIENEGAS NCA
MULESHOE RANCH N/A       57  38  49 NW11G18           *PRESERVE
HEADQUARTERS   N/A       58  34  41 W6G12             *CHIRICAHUA MTNS
$$

.............................NOTES.............................
THIS IS AN AUTOMATED COLLECTIVE WITH MINIMAL QUALITY CONTROL.
PIMA CO DEQ SITES HAVE NONSTANDARD WIND SENSOR HEIGHTS.
PIMA CO DEQ SITES DO NOT REPORT WIND GUSTS.
* INDICATES WIND SENSORS LOCATED AT 20 FEET INSTEAD OF 33 FEET.
..............................KEY..............................
SKY/WX - SKY CONDITION/WEATHER
TMP    - TEMPERATURE IN FAHRENHEIT
DP     - DEWPOINT IN FAHRENHEIT
RH     - RELATIVE HUMIDITY IN PERCENT
WIND   - DIRECTION AND SPEED IN MILES PER HOUR (MPH)
VRB    - VARIABLE WIND DIRECTION
PRES   - MEAN SEA LEVEL PRESSURE IN INCHES OF MERCURY
         F - FALLING PRESSURE   R - RISING PRESSURE
         S - STEADY PRESSURE
VSB    - VISIBILITY IN MILES
HX     - HEAT INDEX IN FAHRENHEIT
WCI    - WIND CHILL INDEX IN FAHRENHEIT
N/A    - NOT AVAILABLE
AFB    - AIR FORCE BASE
         DAVIS-MONTHAN IS DAVIS-MONTHAN AIR FORCE BASE
CYN    - CANYON
MTNS   - MOUNTAINS
NCA    - NATIONAL CONSERVATION AREA
NR     - NEAR
VLY    - VALLEY
CONTL  - CONTINENTAL
PIMA CO DEQ - PIMA COUNTY DEPT OF ENVIRONMENTAL QUALITY



USA.gov is the U.S. government's official web portal to all federal, state and local government web resources and services.